When you browse on this site, cookies collect data to enhance your experience and personalize the content and advertising you see.
Visit our Privacy Policy to learn more. By continuing to use the site, you agree to this use of cookies and data.
  • In Czech Republic
  • List of Countries
  • For 7 days
  • Water Temperature
  • Satellite Maps
  • Weather Map
  • Weather Widgets
  • user-avatar
    Login

    Hourly Weather Babruysk

    Today, 19 November, Monday

    Time Temperature Precipitation Wind Pressure Humidity
    00:00 +1°C° 0 mm 1 mps 755 mmHg 97%
    01:00 -1°C° 0 mm 2 mps 755 mmHg 96%
    02:00 -1°C° 0 mm 2 mps 756 mmHg 96%
    03:00 -1°C° 0 mm 2 mps 756 mmHg 96%
    04:00 -1°C° 0 mm 2 mps 756 mmHg 96%
    05:00 -1°C° 0 mm 2 mps 756 mmHg 96%
    06:00 -1°C° 0 mm 2 mps 756 mmHg 96%
    07:00 -1°C° 0 mm 2 mps 757 mmHg 95%
    08:00 -1°C° 0 mm 2 mps 757 mmHg 95%
    09:00 -1°C° 0 mm 3 mps 757 mmHg 93%
    10:00 0°C° 0 mm 3 mps 758 mmHg 92%
    11:00 +1°C° 0 mm 3 mps 758 mmHg 91%
    12:00 +1°C° 0 mm 3 mps 758 mmHg 90%
    13:00 +1°C° 0 mm 3 mps 758 mmHg 90%
    14:00 0°C° 0 mm 4 mps 758 mmHg 90%
    15:00 0°C° 0 mm 4 mps 758 mmHg 90%
    16:00 0°C° 0 mm 3 mps 758 mmHg 91%
    17:00 0°C° 0 mm 3 mps 758 mmHg 92%
    18:00 0°C° 0 mm 3 mps 758 mmHg 92%
    19:00 0°C° 0 mm 3 mps 758 mmHg 92%
    20:00 0°C° 0 mm 3 mps 758 mmHg 92%
    21:00 0°C° 0 mm 3 mps 758 mmHg 91%
    22:00 0°C° 0 mm 3 mps 759 mmHg 91%
    23:00 0°C° 0 mm 3 mps 759 mmHg 91%

    Tomorrow, 20 November, Tuesday

    Time Temperature Precipitation Wind Pressure Humidity
    00:00 0°C° 0 mm 3 mps 759 mmHg 91%
    01:00 -1°C° 0 mm 3 mps 759 mmHg 92%
    02:00 -1°C° 0 mm 3 mps 759 mmHg 92%
    03:00 -1°C° 0 mm 3 mps 759 mmHg 93%
    04:00 -1°C° 0 mm 3 mps 759 mmHg 93%
    05:00 -2°C° 0 mm 3 mps 758 mmHg 94%
    06:00 -2°C° 0 mm 3 mps 758 mmHg 94%
    07:00 -4°C° 0 mm 3 mps 758 mmHg 94%
    08:00 -3°C° 0 mm 2 mps 758 mmHg 95%
    09:00 -2°C° 0 mm 2 mps 759 mmHg 92%
    10:00 -2°C° 0 mm 2 mps 759 mmHg 89%
    11:00 -1°C° 0 mm 2 mps 759 mmHg 86%
    12:00 -1°C° 0 mm 2 mps 759 mmHg 86%
    13:00 +1°C° 0 mm 2 mps 758 mmHg 85%
    14:00 +2°C° 0 mm 1 mps 758 mmHg 85%
    15:00 -1°C° 0 mm 2 mps 758 mmHg 87%
    16:00 -2°C° 0 mm 2 mps 758 mmHg 90%
    17:00 -3°C° 0 mm 2 mps 758 mmHg 93%
    18:00 -4°C° 0 mm 2 mps 758 mmHg 94%
    19:00 -4°C° 0 mm 2 mps 758 mmHg 94%
    20:00 -4°C° 0 mm 2 mps 758 mmHg 95%
    21:00 -3°C° 0 mm 1 mps 758 mmHg 95%
    22:00 -3°C° 0 mm 1 mps 758 mmHg 95%
    23:00 -3°C° 0 mm 1 mps 758 mmHg 95%

    Day after tomorrow, 21 November, Wednesday

    Time Temperature Precipitation Wind Pressure Humidity
    00:00 -3°C° 0 mm 1 mps 758 mmHg 95%
    01:00 -3°C° 0 mm 1 mps 758 mmHg 95%
    02:00 -3°C° 0 mm 1 mps 758 mmHg 95%
    03:00 -3°C° 0 mm 1 mps 758 mmHg 94%
    04:00 -3°C° 0 mm 1 mps 758 mmHg 94%
    05:00 -3°C° 0 mm 1 mps 758 mmHg 94%
    06:00 -3°C° 0 mm 1 mps 758 mmHg 94%
    07:00 -3°C° 0 mm 1 mps 758 mmHg 93%
    08:00 -3°C° 0 mm 1 mps 758 mmHg 93%
    09:00 -2°C° 0 mm 1 mps 758 mmHg 88%
    10:00 -1°C° 0 mm 1 mps 758 mmHg 83%
    11:00 0°C° 0 mm 1 mps 758 mmHg 79%
    12:00 -2°C° 0 mm 2 mps 758 mmHg 78%
    13:00 -2°C° 0 mm 2 mps 758 mmHg 77%
    14:00 -1°C° 0 mm 2 mps 758 mmHg 76%
    15:00 -2°C° 0 mm 2 mps 758 mmHg 80%
    16:00 -3°C° 0 mm 2 mps 758 mmHg 83%
    17:00 -3°C° 0 mm 2 mps 758 mmHg 86%
    18:00 -3°C° 0 mm 2 mps 758 mmHg 86%
    19:00 -3°C° 0 mm 2 mps 758 mmHg 85%
    20:00 -3°C° 0 mm 2 mps 758 mmHg 84%
    21:00 -3°C° 0 mm 2 mps 758 mmHg 84%
    22:00 -3°C° 0 mm 2 mps 758 mmHg 85%
    23:00 -1°C° 0 mm 1 mps 759 mmHg 85%

    22 November, Thursday

    Time Temperature Precipitation Wind Pressure Humidity
    00:00 -2°C° 0 mm 1 mps 759 mmHg 87%
    01:00 -2°C° 0 mm 1 mps 759 mmHg 88%
    02:00 -3°C° 0 mm 1 mps 759 mmHg 90%
    03:00 -3°C° 0 mm 1 mps 758 mmHg 91%
    04:00 -3°C° 0 mm 1 mps 758 mmHg 92%
    05:00 -3°C° 0 mm 1 mps 758 mmHg 93%
    06:00 -5°C° 0 mm 2 mps 758 mmHg 93%
    07:00 -5°C° 0 mm 2 mps 758 mmHg 93%
    08:00 -5°C° 0 mm 2 mps 758 mmHg 94%
    09:00 -4°C° 0 mm 2 mps 758 mmHg 90%
    10:00 -3°C° 0 mm 2 mps 758 mmHg 85%
    11:00 -2°C° 0 mm 2 mps 758 mmHg 81%
    12:00 -2°C° 0 mm 2 mps 758 mmHg 80%
    13:00 -2°C° 0 mm 2 mps 757 mmHg 78%
    14:00 -1°C° 0 mm 3 mps 757 mmHg 77%
    15:00 -2°C° 0 mm 3 mps 757 mmHg 81%
    16:00 -4°C° 0 mm 3 mps 757 mmHg 84%
    17:00 -5°C° 0 mm 3 mps 757 mmHg 88%
    18:00 -5°C° 0 mm 3 mps 757 mmHg 88%
    19:00 -5°C° 0 mm 3 mps 757 mmHg 89%
    20:00 -5°C° 0 mm 3 mps 757 mmHg 89%
    21:00 -6°C° 0 mm 3 mps 757 mmHg 90%
    22:00 -6°C° 0 mm 3 mps 757 mmHg 92%
    23:00 -5°C° 0 mm 2 mps 757 mmHg 93%

    23 November, Friday

    Time Temperature Precipitation Wind Pressure Humidity
    00:00 -5°C° 0 mm 2 mps 758 mmHg 92%
    01:00 -4°C° 0 mm 2 mps 758 mmHg 91%
    02:00 -4°C° 0 mm 2 mps 758 mmHg 90%
    03:00 -4°C° 0 mm 2 mps 758 mmHg 89%
    04:00 -4°C° 0 mm 2 mps 759 mmHg 88%
    05:00 -3°C° 0 mm 2 mps 759 mmHg 86%
    06:00 -1°C° 0 mm 1 mps 759 mmHg 87%
    07:00 -1°C° 0 mm 1 mps 759 mmHg 87%
    08:00 -2°C° 0 mm 1 mps 760 mmHg 87%
    09:00 -1°C° 0 mm 1 mps 760 mmHg 85%
    10:00 -1°C° 0 mm 0 mps 760 mmHg 82%
    11:00 -1°C° 0 mm 0 mps 760 mmHg 80%
    12:00 -1°C° 0 mm 0 mps 760 mmHg 80%
    13:00 +1°C° 0 mm 1 mps 760 mmHg 80%
    14:00 +1°C° 0 mm 1 mps 760 mmHg 80%
    15:00 0°C° 0 mm 1 mps 760 mmHg 83%
    16:00 -1°C° 0 mm 1 mps 760 mmHg 85%
    17:00 -1°C° 0 mm 1 mps 760 mmHg 88%
    18:00 -2°C° 0 mm 1 mps 760 mmHg 89%
    19:00 -2°C° 0 mm 1 mps 760 mmHg 91%
    20:00 -5°C° 0 mm 2 mps 760 mmHg 92%
    21:00 -5°C° 0 mm 2 mps 759 mmHg 92%
    22:00 -5°C° 0 mm 2 mps 759 mmHg 92%
    23:00 -6°C° 0 mm 2 mps 759 mmHg 93%

    24 November, Saturday

    Time Temperature Precipitation Wind Pressure Humidity
    00:00 -6°C° 0 mm 2 mps 759 mmHg 93%
    01:00 -6°C° 0 mm 2 mps 758 mmHg 93%
    02:00 -6°C° 0 mm 2 mps 758 mmHg 93%
    03:00 -6°C° 0 mm 2 mps 758 mmHg 93%
    04:00 -6°C° 0 mm 2 mps 757 mmHg 93%
    05:00 -6°C° 0 mm 2 mps 757 mmHg 94%
    06:00 -6°C° 0 mm 2 mps 757 mmHg 93%
    07:00 -6°C° 0 mm 2 mps 757 mmHg 92%
    08:00 -7°C° 0 mm 2 mps 756 mmHg 91%
    09:00 -6°C° 0 mm 2 mps 756 mmHg 86%
    10:00 -4°C° 0 mm 2 mps 756 mmHg 80%
    11:00 -4°C° 0 mm 3 mps 756 mmHg 75%
    12:00 -3°C° 0 mm 2 mps 755 mmHg 74%
    13:00 -3°C° 0 mm 2 mps 755 mmHg 74%
    14:00 -2°C° 0 mm 2 mps 754 mmHg 73%
    15:00 -3°C° 0 mm 2 mps 754 mmHg 76%
    16:00 -4°C° 0 mm 2 mps 754 mmHg 80%
    17:00 -4°C° 0 mm 2 mps 753 mmHg 83%
    18:00 -4°C° 0 mm 2 mps 753 mmHg 84%
    19:00 -4°C° 0 mm 2 mps 753 mmHg 85%
    20:00 -4°C° 0 mm 2 mps 753 mmHg 86%
    21:00 -4°C° 0 mm 2 mps 752 mmHg 88%
    22:00 -4°C° 0 mm 2 mps 752 mmHg 89%
    23:00 -4°C° 0 mm 2 mps 752 mmHg 91%
    Show more